Booneville, Arkansas, United States (72927)
Lat: 35.14N, Lon: 93.92W
Wx Zone: ARZ030
Local Info
Past Weather Observations for Wednesday, September 10, 2014

NOTE: This archive is for the closest National Weather Service station to Booneville. Information may differ from the station used for current weather conditions.

Click here for Long-term Archive

Time Weather Temperature Dewpoint Humidity Pressure Winds Precip Visibility
23:53
Overcast
Thunder Storms
73°F / 23°C 70°F / 21°C 89% 29.95 in
(1014 mb)
W 12.7 mph
(W 20 kph)
0.29 in
(7.37 mm)
23:34
Overcast
Thunder Storms
75°F / 24°C 72°F / 22°C 89% 29.92 in
(1013 mb)
NW 8.1 mph
(NW 13 kph)
0.01 in
(0.25 mm)
23:27
Overcast
Thunder Storms
75°F / 24°C 73°F / 23°C 94% 29.89 in
(1012 mb)
N 9.2 mph
(N 15 kph)
0.00 in
(0.00 mm)
23:12
Overcast
Thunder Storms
75°F / 24°C 73°F / 23°C 94% 29.86 in
(1011 mb)
Calm 0.00 in
(0.00 mm)
22:53
Overcast
75°F / 24°C 73°F / 23°C 94% 29.89 in
(1012 mb)
W 6.9 mph
(W 11 kph)
0.02 in
(0.51 mm)
22:39
Mostly Cloudy
Light Rain
75°F / 24°C 73°F / 23°C 94% 29.89 in
(1012 mb)
SW 8.1 mph
(SW 13 kph)
0.02 in
(0.51 mm)
22:21
Mostly Cloudy
Thunder Storms
77°F / 25°C 73°F / 23°C 89% 29.86 in
(1011 mb)
SW 8.1 mph
(SW 13 kph)
0.00 in
(0.00 mm)
21:53
Partly Cloudy
77°F / 25°C 73°F / 23°C 89% 29.86 in
(1011 mb)
Calm -
20:53
Mostly Cloudy
Fog And Mist
77°F / 25°C 73°F / 23°C 89% 29.83 in
(1010 mb)
Calm 0.00 in
(0.00 mm)
5SM
20:10
Mostly Cloudy
Light Rain
79°F / 26°C 73°F / 23°C 84% 29.83 in
(1010 mb)
WNW 8.1 mph
(WNW 13 kph)
0.00 in
(0.00 mm)
5SM
20:01
Mostly Cloudy
Thunder Storms
79°F / 26°C 75°F / 24°C 89% 29.8 in
(1009 mb)
W 10.4 mph
(W 17 kph)
0.00 in
(0.00 mm)
5SM
19:53
Overcast
Thunder Storms
79°F / 26°C 75°F / 24°C 89% 29.83 in
(1010 mb)
SSW 15 mph
(SSW 24 kph)
0.26 in
(6.60 mm)
5SM
19:43
Overcast
Thunder Storms
79°F / 26°C 73°F / 23°C 84% 29.8 in
(1009 mb)
SSW 5.8 mph
(SSW 9 kph)
0.25 in
(6.35 mm)
19:34
Mostly Cloudy
Thunder Storms
77°F / 25°C 73°F / 23°C 89% 29.8 in
(1009 mb)
SSE 5.8 mph
(SSE 9 kph)
0.25 in
(6.35 mm)
19:08
Overcast
Thunder Storms
77°F / 25°C 73°F / 23°C 89% 29.8 in
(1009 mb)
SE 4.6 mph
(SE 7 kph)
0.25 in
(6.35 mm)
19:01
Overcast
Thunder Storms
75°F / 24°C 73°F / 23°C 94% 29.77 in
(1008 mb)
Variable 3.5 mph
(Variable 6 kph)
0.25 in
(6.35 mm)
18:53
Overcast
Thunder Storms
75°F / 24°C 73°F / 23°C 94% 29.8 in
(1009 mb)
W 16.1 mph
(W 26 kph)
0.22 in
(5.59 mm)
18:46
Overcast
Thunder Storms
75°F / 24°C 72°F / 22°C 89% 29.77 in
(1008 mb)
NW 40.3 mph
(NW 65 kph)
0.00 in
(0.00 mm)
18:22
Mostly Cloudy
Thunder Storms
88°F / 31°C 73°F / 23°C 62% 29.74 in
(1007 mb)
S 5.8 mph
(S 9 kph)
- 10SM
18:07
Partly Cloudy
Thunder Storms
90°F / 32°C 72°F / 22°C 55% 29.74 in
(1007 mb)
SSE 4.6 mph
(SSE 7 kph)
- 10SM
17:53
Partly Cloudy
90°F / 32°C 72°F / 22°C 55% 29.74 in
(1007 mb)
S 5.8 mph
(S 9 kph)
- 10SM
16:53
Partly Cloudy
93°F / 34°C 70°F / 21°C 47% 29.74 in
(1007 mb)
SW 11.5 mph
(SW 19 kph)
- 10SM
15:53
Mostly Cloudy
93°F / 34°C 70°F / 21°C 47% 29.74 in
(1007 mb)
SW 15 mph
(SW 24 kph)
- 10SM
14:53
Partly Cloudy
95°F / 35°C 70°F / 21°C 44% 29.74 in
(1007 mb)
SW 15 mph
(SW 24 kph)
- 10SM
13:53
Partly Cloudy
97°F / 36°C 68°F / 20°C 39% 29.74 in
(1007 mb)
SW 13.8 mph
(SW 22 kph)
- 10SM
12:53
Clear
95°F / 35°C 70°F / 21°C 44% 29.74 in
(1007 mb)
SSW 15 mph
(SSW 24 kph)
- 10SM
11:53
Clear
93°F / 34°C 70°F / 21°C 47% 29.77 in
(1008 mb)
SSE 13.8 mph
(SSE 22 kph)
- 10SM
10:53
Clear
93°F / 34°C 70°F / 21°C 47% 29.77 in
(1008 mb)
SW 12.7 mph
(SW 20 kph)
- 10SM
09:53
Clear
90°F / 32°C 70°F / 21°C 52% 29.77 in
(1008 mb)
SW 11.5 mph
(SW 19 kph)
- 10SM
08:53
Clear
86°F / 30°C 70°F / 21°C 59% 29.77 in
(1008 mb)
SSE 12.7 mph
(SSE 20 kph)
- 10SM
07:53
Clear
84°F / 29°C 70°F / 21°C 62% 29.8 in
(1009 mb)
SW 11.5 mph
(SW 19 kph)
- 10SM
06:53
Clear
81°F / 27°C 70°F / 21°C 70% 29.77 in
(1008 mb)
S 8.1 mph
(S 13 kph)
- 10SM
05:53
Clear
81°F / 27°C 70°F / 21°C 70% 29.77 in
(1008 mb)
Variable 4.6 mph
(Variable 7 kph)
- 10SM
04:53
Clear
75°F / 24°C 70°F / 21°C 83% 29.77 in
(1008 mb)
Calm - 10SM
03:53
Clear
81°F / 27°C 70°F / 21°C 70% 29.77 in
(1008 mb)
Calm - 10SM
02:53
Clear
79°F / 26°C 70°F / 21°C 74% 29.77 in
(1008 mb)
Calm - 10SM
01:53
Clear
79°F / 26°C 70°F / 21°C 74% 29.77 in
(1008 mb)
S 5.8 mph
(S 9 kph)
- 10SM
00:53
Clear
79°F / 26°C 70°F / 21°C 74% 29.8 in
(1009 mb)
Calm - 10SM
Time Weather Temperature Dewpoint Humidity Pressure Winds Precip Visibility


Weather for websites

WeatherForYou.com, LLC is not responsible for any damages or problems caused by this service. Current weather conditions are obtained from the closest station including government and personal stations which may have varying degrees of accuracy. Weather forecasts are derived from the NOAA NDFD. Like all things, this site belongs to Jesus Christ... He just trusts me to maintain it. If you have any questions or comments email webmaster@weatherforyou.com

Copyright © 2014, WeatherForYou.com LLC. All rights reserved.